Flag for USA

Past Weather in 42°37'31.6"N, 83°45'08.3"W, USA — Yesterday and Last 2 Weeks

Now
54 °F

Sunny.


Feels Like: 52 °F
Forecast: 69 / 41 °F
Wind: 7 mph from Southwest

Location: Livingston County Airport

Current Time: Jun 1, 2020 at 8:42:11 am

Latest Report: Jun 1, 2020 at 8:15 am


Visibility: 10 mi

Pressure: 30.28 "Hg

Humidity: 69%

Dew Point: 44 °F

Location of 42°37'31.6"N, 83°45'08.3"WLocation

Past Weather in 42°37'31.6"N, 83°45'08.3"W — Graph

°F

42°37'31.6"N, 83°45'08.3"W Temperature Yesterday

Maximum temperature yesterday: 63 °F (at 5:56 pm)
Minimum temperature yesterday: 40 °F (at 5:55 am)
Average temperature yesterday: 52 °F

High & Low Weather Summary for the Past Weeks

 TemperatureHumidityPressure
High89 °F (May 26, 4:35 pm)100% (May 18, 2:35 pm)30.35 "Hg (May 18, 2:35 pm)
Low40 °F (May 31, 5:55 am)34% (May 31, 5:35 pm)29.80 "Hg (May 28, 6:15 pm)
Average64 °F76%30.04 "Hg
* Reported May 17 7:16 am — Jun 1 7:16 am, 42°37'31.6"N, 83°45'08.3"W. Weather by CustomWeather, © 2020

Note: Actual official high and low records may vary slightly from our data, if they occured in-between our weather recording intervals... More about our weather records

42°37'31.6"N, 83°45'08.3"W Weather History for the Previous 24 Hours

Scroll right to see more
 ConditionsComfort  
Time TempWeatherWind HumidityBarometerVisibility
7:16 am
Mon, Jun 1
48 °FSunny.6 mph84%30.29 "Hg10 mi
6:55 am46 °FSunny.No wind90%30.29 "Hg10 mi
6:35 am45 °FSunny.No wind90%30.29 "Hg10 mi
6:16 am45 °FSunny.No wind87%30.29 "Hg10 mi
5:56 am42 °FClear.No wind93%30.29 "Hg10 mi
5:36 am44 °FClear.No wind90%30.29 "Hg10 mi
5:16 am44 °FClear.No wind91%30.28 "Hg10 mi
4:55 am44 °FClear.No wind92%30.28 "Hg10 mi
4:35 am43 °FClear.No wind92%30.28 "Hg10 mi
4:16 am45 °FClear.No wind88%30.28 "Hg10 mi
3:55 am45 °FClear.No wind87%30.28 "Hg10 mi
3:36 am45 °FClear.No wind90%30.27 "Hg10 mi
3:15 am45 °FClear.No wind84%30.27 "Hg10 mi
2:55 am45 °FClear.No wind86%30.27 "Hg10 mi
2:36 am47 °FClear.No wind79%30.28 "Hg10 mi
2:15 am46 °FClear.No wind83%30.28 "Hg10 mi
1:55 am47 °FClear.3 mph80%30.27 "Hg10 mi
1:35 am48 °FClear.5 mph78%30.27 "Hg10 mi
1:15 am48 °FClear.3 mph79%30.28 "Hg10 mi
12:55 am46 °FClear.3 mph83%30.28 "Hg10 mi
12:36 am49 °FClear.No wind77%30.27 "Hg10 mi
12:15 am49 °FClear.No wind76%30.28 "Hg10 mi
11:56 pm
Sun, May 31
51 °FClear.No wind70%30.28 "Hg10 mi
11:35 pm50 °FClear.3 mph74%30.28 "Hg10 mi
11:16 pm51 °FClear.No wind69%30.28 "Hg10 mi
10:55 pm52 °FClear.3 mph70%30.28 "Hg10 mi
10:35 pm53 °FClear.No wind68%30.28 "Hg10 mi
10:16 pm51 °FClear.3 mph71%30.28 "Hg10 mi
9:55 pm53 °FClear.3 mph65%30.28 "Hg10 mi
9:35 pm53 °FClear.3 mph66%30.28 "Hg10 mi
9:15 pm55 °FClear.No wind58%30.27 "Hg10 mi
8:55 pm56 °FSunny.No wind52%30.27 "Hg10 mi
8:16 pm60 °FSunny.No wind42%30.27 "Hg10 mi
7:55 pm62 °FSunny.5 mph37%30.27 "Hg10 mi
7:35 pm62 °FSunny.No wind38%30.26 "Hg10 mi
7:16 pm63 °FSunny.5 mph36%30.26 "Hg10 mi
6:56 pm62 °FSunny.No wind34%30.26 "Hg10 mi
6:36 pm62 °FSunny.3 mph36%30.27 "Hg10 mi
6:15 pm63 °FSunny.6 mph36%30.28 "Hg10 mi
5:56 pm63 °FSunny.7 mph35%30.27 "Hg10 mi
5:35 pm62 °FSunny.3 mph34%30.28 "Hg10 mi
5:15 pm62 °FSunny.5 mph35%30.28 "Hg10 mi
4:35 pm61 °FSunny.3 mph36%30.29 "Hg10 mi
4:15 pm61 °FSunny.6 mph37%30.30 "Hg10 mi
3:55 pm61 °FSunny.5 mph37%30.30 "Hg10 mi
3:35 pm61 °FSunny.5 mph39%30.31 "Hg10 mi
3:16 pm61 °FSunny.6 mph40%30.31 "Hg10 mi
2:56 pm58 °FSunny.No wind40%30.32 "Hg10 mi
2:35 pm58 °FSunny.6 mph41%30.32 "Hg10 mi
2:16 pm57 °FSunny.3 mph43%30.33 "Hg10 mi
1:56 pm57 °FSunny.3 mph46%30.33 "Hg10 mi
1:35 pm56 °FSunny.8 mph49%30.34 "Hg10 mi
1:15 pm55 °FSunny.6 mph47%30.34 "Hg10 mi
12:55 pm55 °FSunny.No wind47%30.35 "Hg10 mi
12:36 pm54 °FSunny.6 mph48%30.35 "Hg10 mi
12:15 pm54 °FSunny.9 mph51%30.35 "Hg10 mi
11:55 am54 °FSunny.8 mph50%30.35 "Hg10 mi
11:35 am53 °FSunny.9 mph51%30.35 "Hg10 mi
11:15 am52 °FSunny.3 mph50%30.35 "Hg10 mi
10:55 am52 °FSunny.7 mph51%30.35 "Hg10 mi
10:36 am51 °FSunny.5 mph53%30.35 "Hg10 mi
10:15 am50 °FSunny.5 mph52%30.35 "Hg10 mi
9:36 am48 °FSunny.6 mph55%30.35 "Hg10 mi
9:16 am48 °FSunny.5 mph58%30.35 "Hg10 mi
8:56 am47 °FSunny.8 mph58%30.35 "Hg10 mi
8:36 am46 °FSunny.8 mph59%30.35 "Hg10 mi
Weather by CustomWeather, © 2020

See weather overview

Advertising